User: anonymous   Login
Location: Seasalter
(51.3333°N, 1.0167°E)
Time: 18:12:13
(UTC+00:00)
Language:

RESURS DK-1 - Orbit

View from above orbital plane
View from above orbital plane
View from above satellite
View from above satellite

Ground track
Ground track

The orbit data is extracted from the following two-line orbital elements,

1 29228U 06021A   24062.14792118  .00002575  00000-0  18070-3 0  9997
2 29228  69.9369 336.1136 0005601 216.5115 143.5667 15.06493766976228
Epoch (UTC): 02 March 2024 03:33:00
Eccentricity: 0.0005601
inclination: 69.9369°
perigee height: 543 km
apogee height: 551 km
right ascension of ascending node: 336.1136°
argument of perigee: 216.5115°
revolutions per day: 15.06493766
mean anomaly at epoch: 143.5667°
orbit number at epoch: 97622

The dashed part of the orbit path shows where the satellite is in the earth's shadow,  

DLR